Regional Weather Roundup
Issued by NWS

Home | Current Version | Previous Version | Text Only | Print | Product List | Glossary On
Versions: 1 2 3 4 5 6 7 8 9 10 11 12 13 14 15 16 17 18 19 20 21 22 23 24 25 26 27 28 29 30 31 32 33 34 35 36 37 38 39 40 41 42 43 44 45 46 47 48 49 50
000
ASUS45 KABQ 060901
RWRNM
WEATHER ROUNDUP FOR NEW MEXICO
NATIONAL WEATHER SERVICE ALBUQUERQUE NM
200 AM MST FRI MAR 06 2015

NOTE: "FAIR" MEANS FEW OR NO CLOUDS BELOW 12,000 FEET AGL WITH NO
       SIGNIFICANT WEATHER OR OBSTRUCTIONS TO VISION.

      THIS PRODUCT IS RELEASED AS TWO VERSIONS.  ONE VERSION NEAR
      THE TOP OF THE HOUR CONTAINING PRELIMINARY DATA FROM ALBUQUERQUE
      AND OTHER STATIONS.  A FINAL VERSION WITH ADDITIONAL DATA IS
      ISSUED ABOUT 10 MINUTES AFTER THE HOUR.

NMZ501-503-504-510>518-061000-
NORTHWEST PLATEAU/NORTHCENTRAL MOUNTAINS

CITY           SKY/WX    TMP DP  RH WIND       PRES   REMARKS
FARMINGTON     CLEAR     26  19  74 E7        30.38S WCI  18
LOS ALAMOS     CLEAR     32  10  40 N5        30.36F WCI  27
SANTA FE       CLEAR     29  14  53 N9        30.33F WCI  20
TAOS           PTCLDY    19  10  68 N5        30.39S WCI  13
ANGEL FIRE     FAIR       1  -3  83 CALM      30.39R

$$
NMZ402-403-502-505>509-061000-
WESTCENTRAL MOUNTAINS/SOUTHWEST MOUNTAINS

CITY           SKY/WX    TMP DP  RH WIND       PRES   REMARKS
GALLUP         CLEAR     25  18  74 CALM      30.38S
GRANTS         CLEAR     19  13  74 NW8       30.40S WCI   9
SILVER CITY    CLEAR     27  18  69 N9        30.35S WCI  17

$$
NMZ407-409-411-412-061000-
SOUTHERN DESERTS

CITY           SKY/WX    TMP DP  RH WIND       PRES   REMARKS
DEMING         CLEAR     30  22  72 SE3       30.35S
LAS CRUCES     CLEAR     28  22  77 CALM      30.36S
HOLLOMAN AFB   CLEAR     28  22  76 CALM      30.36S
ALAMOGORDO     CLEAR     32  23  69 NE7       30.37F WCI  26
T OR C         CLEAR     33  16  49 NW6       30.35F WCI  28

$$
NMZ519>523-061000-
CENTRAL VALLEYS/CENTRAL HIGHLANDS

CITY           SKY/WX    TMP DP  RH WIND       PRES   REMARKS
ALBUQUERQUE    CLEAR     36  12  37 N6        30.37S WCI  31
DOUBLE EAGLE   CLEAR     29  10  43 NW10      30.37S WCI  20
MORIARTY ARPT  FAIR      21  12  67 NE3       30.36R
CLINES CORNERS CLEAR     27  14  58 W15       30.30S WCI  15
BELEN          FAIR      31  11  42 NW5       30.38R WCI  27
SOCORRO          N/A     28  18  66 CALM      30.37F

$$
NMZ524>526-539-540-061000-
SOUTHCENTRAL MOUNTAINS

CITY           SKY/WX    TMP DP  RH WIND       PRES   REMARKS
RUIDOSO        NOT AVBL

$$
NMZ527>531-061000-
NORTHEAST HIGHLANDS/NORTHEAST PLAINS

CITY           SKY/WX    TMP DP  RH WIND       PRES   REMARKS
LAS VEGAS      CLEAR     30  11  45 NW5       30.30S WCI  25
RATON          CLEAR     22  19  89 NE6       30.30S WCI  14
CLAYTON        CLEAR     35  23  61 NW13      30.27S WCI  26

$$
NMZ532>537-061000-
EASTCENTRAL PLAINS

CITY           SKY/WX    TMP DP  RH WIND       PRES   REMARKS
TUCUMCARI      CLEAR     28  23  81 SW14      30.32S WCI  17
CANNON AFB     CLEAR     23  20  87 W3        30.34F
CLOVIS AIRPORT CLEAR     21  18  86 SW6       30.35S WCI  14

$$
NMZ028-029-538-061000-
SOUTHEAST PLAINS

CITY           SKY/WX    TMP DP  RH WIND       PRES   REMARKS
ROSWELL        CLEAR     24  21  88 CALM      30.38S
ARTESIA        CLOUDY    23  23 100 S5        30.40S FOG     WCI  17
CARLSBAD       CLEAR     26  23  88 S6        30.38F WCI  19
HOBBS            N/A     23  23 100 SW5       30.40F WCI  17


$$


USA.gov is the U.S. government's official web portal to all federal, state and local government web resources and services.